QPF
0.00 0.00 0.00 0.00 0.00 0.00 0.00 0.00 0.00 0.00 0.00 0.00 0.00 0.00 0.00 0.00 0.00 0.00 0.00 0.00 0.00 0.00 0.00 0.00 0.00 0.00 0.00 0.00 0.00 0.00 0.00 0.00 0.00 0.00 0.00 0.00 0.00 0.00 0.00 0.00 0.00 0.00
0.00 0.00 0.00 0.00 0.00 0.00 0.00 0.00 0.00 0.00 0.00 0.00 0.00 0.00 0.00 0.00 0.00 0.00 0.00 0.00 0.00 0.00 0.00 0.00 0.00 0.00 0.00 0.00 0.00 0.00 0.00 0.00 0.00 0.00 0.00 0.00 0.00 0.00 0.00 0.00 0.00 0.00
0.00 0.00 0.00 0.00 0.00 0.00 0.00 0.00 0.00 0.00 0.00 0.00 0.00 0.00 0.00 0.00 0.00 0.00 0.00 0.00 0.00 0.00 0.00 0.00 0.00 0.00 0.00 0.00 0.00 0.00 0.00 0.00 0.00 0.00 0.00 0.00 0.00 0.00 0.00 0.00 0.00 0.00
0.00 0.00 0.00 0.00 0.00 0.00 0.00 0.00 0.00 0.00 0.00 0.00 0.00 0.00 0.00 0.00 0.00 0.00 0.00 0.00 0.00 0.00 0.00 0.00 0.00 0.00 0.00 0.00 0.00 0.00 0.00 0.00 0.00 0.00 0.00 0.00 0.00 0.00 0.00 0.00 0.00 0.00
0.00 0.00 0.00 0.00 0.00 0.00 0.00 0.00 0.00 0.00 0.00 0.00 0.00 0.00 0.00 0.00 0.00 0.00 0.00 0.00 0.00 0.00 0.00 0.00 0.00 0.00 0.00 0.00 0.00 0.00 0.00 0.00 0.00 0.00 0.00 0.00 0.00 0.00 0.00 0.00 0.00 0.00
0.00 0.00 0.00 0.00 0.00 0.00 0.00 0.00 0.00 0.00 0.00 0.00 0.00 0.00 0.00 0.00 0.00 0.00 0.00 0.00 0.00 0.00 0.00 0.00 0.00 0.00 0.00 0.00 0.00 0.00 0.00 0.00 0.00 0.00 0.00 0.00 0.00 0.00 0.00 0.00 0.00 0.00
0.00 0.00 0.00 0.00 0.00 0.00 0.00 0.00 0.00 0.00 0.00 0.00 0.00 0.00 0.00 0.00 0.00 0.00 0.00 0.00 0.00 0.00 0.00 0.00 0.00 0.00 0.00 0.00 0.00 0.00 0.00 0.00 0.00 0.00 0.00 0.00 0.00 0.00 0.00 0.00 0.00 0.00
0.00 0.00 0.00 0.00 0.00 0.00 0.00 0.00 0.00 0.00 0.00 0.00 0.00 0.00 0.00 0.00 0.00 0.00 0.00 0.00 0.00 0.00 0.00 0.00 0.00 0.00 0.00 0.00 0.00 0.00 0.00 0.00 0.00 0.00 0.00 0.00 0.00 0.00 0.00 0.00 0.00 0.00
0.00 0.00 0.00 0.00 0.00 0.00 0.00 0.00 0.00 0.00 0.00 0.00 0.00 0.00 0.00 0.00 0.00 0.00 0.00 0.00 0.00 0.00 0.00 0.00 0.00 0.00 0.00 0.00 0.00 0.00 0.00 0.00 0.00 0.00 0.00 0.00 0.00 0.00 0.00 0.00 0.00 0.00
0.00 0.00 0.00 0.00 0.00 0.00 0.00 0.00 0.00 0.00 0.00 0.00 0.00 0.00 0.00 0.00 0.00 0.00 0.00 0.00 0.00 0.00 0.00 0.00 0.00 0.00 0.00 0.00 0.00 0.00 0.00 0.00 0.00 0.00 0.00 0.00 0.00 0.00 0.00 0.00 0.00 0.00
0.00 0.00 0.00 0.00 0.00 0.00 0.00 0.00 0.00 0.00 0.00 0.00 0.00 0.00 0.00 0.00 0.00 0.00 0.00 0.00 0.00 0.00 0.00 0.00 0.00 0.00 0.00 0.00 0.00 0.00 0.00 0.00 0.00 0.00 0.00 0.00 0.00 0.00 0.00 0.00 0.00 0.00
0.00 0.00 0.00 0.00 0.00 0.00 0.00 0.00 0.00 0.00 0.00 0.00 0.00 0.00 0.00 0.00 0.00 0.00 0.00 0.00 0.00 0.00 0.00 0.00 0.00 0.00 0.00 0.00 0.00 0.00 0.00 0.00 0.00 0.00 0.00 0.00 0.00 0.00 0.00 0.00 0.00 0.00
0.00 0.00 0.00 0.00 0.00 0.00 0.00 0.00 0.00 0.00 0.00 0.00 0.00 0.00 0.00 0.00 0.00 0.00 0.00 0.00 0.00 0.00 0.00 0.00 0.00 0.00 0.00 0.00 0.00 0.00 0.00 0.00 0.00 0.00 0.00 0.00 0.00 0.00 0.00 0.00 0.00 0.00
0.00 0.00 0.00 0.00 0.00 0.00 0.00 0.00 0.00 0.00 0.00 0.00 0.00 0.00 0.00 0.00 0.00 0.00 0.00 0.00 0.00 0.00 0.00 0.00 0.00 0.00 0.00 0.00 0.00 0.00 0.00 0.00 0.00 0.00 0.00 0.00 0.00 0.00 0.00 0.00 0.00 0.00
0.00 0.00 0.00 0.00 0.00 0.00 0.00 0.00 0.00 0.00 0.00 0.00 0.00 0.00 0.00 0.00 0.00 0.00 0.00 0.00 0.00 0.00 0.00 0.00 0.00 0.00 0.00 0.00 0.00 0.00 0.00 0.00 0.00 0.00 0.00 0.00 0.00 0.00 0.00 0.00 0.00 0.00
0.00 0.00 0.00 0.00 0.00 0.00 0.00 0.00 0.00 0.00 0.00 0.00 0.00 0.00 0.00 0.00 0.00 0.00 0.00 0.00 0.00 0.00 0.00 0.00 0.00 0.00 0.00 0.00 0.00 0.00 0.00 0.00 0.00 0.00 0.00 0.00 0.00 0.00 0.00 0.00 0.00 0.00
0.00 0.00 0.00 0.00 0.00 0.00 0.00 0.00 0.00 0.00 0.00 0.00 0.00 0.00 0.00 0.00 0.00 0.00 0.00 0.00 0.00 0.00 0.00 0.00 0.00 0.00 0.00 0.00 0.00 0.00 0.00 0.00 0.01 0.00 0.00 0.00 0.00 0.02 0.00 0.00 0.00 0.00
0.00 0.00 0.00 0.00 0.00 0.00 0.00 0.00 0.00 0.00 0.00 0.00 0.00 0.00 0.00 0.00 0.00 0.00 0.00 0.00 0.00 0.00 0.00 0.00 0.00 0.00 0.00 0.00 0.00 0.00 0.31 0.11 0.01 0.00 0.00 0.00 0.00 0.00 0.00 0.00 0.00 0.00
0.00 0.00 0.00 0.00 0.00 0.00 0.00 0.00 0.00 0.00 0.00 0.00 0.00 0.00 0.00 0.00 0.00 0.00 0.00 0.00 0.00 0.00 0.00 0.00 0.00 0.00 0.00 0.00 0.00 0.77 0.42 0.05 0.01 0.00 0.00 0.00 0.00 0.00 0.00 0.00 0.00 0.00
0.00 0.00 0.00 0.00 0.00 0.00 0.00 0.00 0.00 0.00 0.00 0.00 0.00 0.00 0.00 0.00 0.00 0.00 0.00 0.00 0.00 0.00 0.00 0.00 0.00 0.00 0.00 0.00 0.01 0.74 0.69 0.03 0.00 0.00 0.00 0.00 0.00 0.00 0.00 0.00 0.00 0.00
0.00 0.00 0.00 0.00 0.00 0.00 0.00 0.00 0.00 0.00 0.00 0.00 0.00 0.00 0.00 0.00 0.00 0.00 0.00 0.00 0.00 0.00 0.00 0.00 0.00 0.00 0.00 0.00 0.02 0.58 0.46 0.60 0.21 0.00 0.00 0.00 0.00 0.00 0.00 0.00 0.00 0.00
0.00 0.00 0.00 0.00 0.00 0.00 0.00 0.00 0.00 0.00 0.00 0.00 0.00 0.00 0.00 0.00 0.00 0.00 0.00 0.00 0.00 0.00 0.00 0.00 0.00 0.00 0.00 0.00 0.02 0.25 0.40 0.63 0.19 0.03 0.00 0.00 0.00 0.00 0.00 0.00 0.00 0.00
0.00 0.00 0.00 0.00 0.00 0.00 0.00 0.00 0.00 0.00 0.00 0.00 0.00 0.00 0.00 0.00 0.00 0.00 0.00 0.00 0.00 0.00 0.00 0.00 0.00 0.00 0.00 0.00 0.02 0.02 0.02 0.04 0.01 0.00 0.00 0.00 0.00 0.00 0.00 0.00 0.00 0.00
0.00 0.00 0.00 0.00 0.00 0.00 0.00 0.00 0.00 0.00 0.00 0.00 0.00 0.00 0.00 0.00 0.00 0.00 0.00 0.00 0.00 0.00 0.00 0.00 0.00 0.00 0.00 0.00 0.00 0.00 0.00 0.00 0.00 0.00 0.01 0.00 0.00 0.00 0.00 0.00 0.00 0.00
0.00 0.00 0.00 0.00 0.00 0.00 0.00 0.00 0.00 0.00 0.00 0.00 0.00 0.00 0.00 0.00 0.00 0.00 0.00 0.00 0.00 0.00 0.00 0.00 0.00 0.00 0.00 0.00 0.00 0.00 0.00 0.00 0.01 0.01 0.00 0.00 0.00 0.00 0.00 0.00 0.00 0.00
0.00 0.00 0.00 0.00 0.00 0.00 0.00 0.00 0.00 0.00 0.00 0.00 0.00 0.00 0.00 0.00 0.00 0.00 0.00 0.00 0.00 0.00 0.00 0.00 0.00 0.00 0.01 0.00 0.00 0.00 0.00 0.00 0.00 0.00 0.00 0.00 0.00 0.00 0.00 0.00 0.00 0.01
MSLP
1010.90 1011.26 1011.66 1011.93 1012.05 1012.14 1012.41 1012.78 1012.97 1013.26 1013.49 1013.61 1013.93 1014.02 1014.09 1014.09 1014.22 1014.46 1014.61 1014.85 1015.02 1015.26 1015.46 1015.58 1015.73 1015.93 1016.05 1016.22 1016.46 1016.70 1016.85 1016.97 1017.09 1017.22 1017.38 1017.53 1017.70 1017.85 1018.09 1018.22 1018.34 1018.34
1010.53 1010.82 1011.17 1011.49 1011.73 1011.85 1012.02 1012.14 1012.49 1012.78 1013.05 1013.17 1013.26 1013.41 1013.58 1013.73 1013.93 1014.09 1014.41 1014.70 1014.82 1015.02 1015.14 1015.38 1015.53 1015.70 1015.90 1016.09 1016.34 1016.61 1016.82 1016.93 1017.09 1017.02 1017.26 1017.46 1017.49 1017.58 1017.73 1017.93 1018.09 1018.09
1010.17 1010.58 1010.93 1011.34 1011.49 1011.66 1011.78 1011.85 1012.09 1012.34 1012.58 1012.70 1012.82 1013.02 1013.29 1013.38 1013.70 1013.85 1014.05 1014.29 1014.61 1014.82 1015.02 1015.14 1015.34 1015.49 1015.70 1015.90 1016.17 1016.46 1016.73 1016.90 1017.02 1016.97 1017.09 1017.26 1017.29 1017.46 1017.49 1017.66 1017.90 1018.02
1009.85 1010.09 1010.46 1010.78 1011.02 1011.29 1011.41 1011.73 1011.90 1012.09 1012.22 1012.53 1012.66 1012.73 1012.93 1013.14 1013.38 1013.66 1013.85 1014.05 1014.38 1014.66 1014.82 1014.97 1015.09 1015.29 1015.49 1015.70 1016.09 1016.38 1016.49 1016.61 1016.61 1016.78 1016.97 1017.09 1017.17 1017.22 1017.38 1017.49 1017.66 1017.85
1009.49 1009.78 1010.05 1010.38 1010.61 1010.85 1011.14 1011.46 1011.66 1011.73 1011.90 1012.02 1012.26 1012.46 1012.73 1012.97 1013.26 1013.53 1013.73 1013.97 1014.17 1014.49 1014.66 1014.82 1014.90 1015.14 1015.34 1015.61 1015.93 1016.29 1016.38 1016.49 1016.53 1016.66 1016.85 1017.05 1017.05 1017.17 1017.26 1017.41 1017.61 1017.78
1009.09 1009.34 1009.66 1010.02 1010.29 1010.66 1010.97 1011.14 1011.22 1011.34 1011.53 1011.82 1011.90 1012.09 1012.38 1012.58 1012.85 1013.14 1013.41 1013.73 1013.97 1014.22 1014.41 1014.58 1014.82 1014.97 1015.17 1015.41 1015.73 1015.97 1016.14 1016.34 1016.38 1016.49 1016.70 1016.90 1017.02 1017.05 1017.09 1017.26 1017.49 1017.70
1008.85 1009.14 1009.46 1009.66 1010.02 1010.22 1010.53 1010.70 1010.82 1010.90 1011.02 1011.09 1011.49 1011.82 1011.97 1012.34 1012.58 1012.78 1013.05 1013.34 1013.66 1013.90 1014.14 1014.38 1014.61 1014.90 1014.97 1015.17 1015.46 1015.70 1015.82 1015.93 1016.09 1016.29 1016.49 1016.61 1016.73 1016.93 1016.93 1017.05 1017.29 1017.49
1008.38 1008.66 1008.97 1009.34 1009.70 1009.93 1010.22 1010.34 1010.46 1010.49 1010.53 1010.90 1011.17 1011.29 1011.53 1011.90 1012.22 1012.41 1012.66 1012.97 1013.34 1013.58 1013.82 1014.05 1014.29 1014.53 1014.73 1014.90 1015.14 1015.34 1015.53 1015.58 1015.73 1015.97 1016.22 1016.38 1016.49 1016.66 1016.78 1016.90 1017.09 1017.34
1007.90 1008.29 1008.61 1009.02 1009.38 1009.58 1009.82 1009.90 1010.02 1010.14 1010.17 1010.53 1010.73 1011.02 1011.17 1011.41 1011.73 1012.05 1012.34 1012.70 1013.02 1013.26 1013.58 1013.85 1014.05 1014.29 1014.38 1014.53 1014.70 1014.90 1015.09 1015.26 1015.38 1015.61 1015.85 1016.17 1016.41 1016.49 1016.66 1016.78 1017.05 1017.17
1007.49 1007.82 1008.26 1008.58 1008.93 1009.05 1009.34 1009.41 1009.53 1009.73 1009.82 1010.09 1010.34 1010.61 1010.97 1011.05 1011.29 1011.66 1012.05 1012.46 1012.78 1013.05 1013.34 1013.61 1013.90 1013.97 1014.02 1014.05 1014.17 1014.29 1014.53 1014.82 1015.02 1015.22 1015.41 1015.70 1016.02 1016.29 1016.46 1016.61 1016.82 1017.02
1007.02 1007.34 1007.78 1008.09 1008.38 1008.53 1008.82 1008.93 1009.14 1009.29 1009.46 1009.73 1010.05 1010.38 1010.49 1010.82 1011.09 1011.29 1011.78 1012.14 1012.46 1012.73 1013.14 1013.41 1013.46 1013.46 1013.61 1013.73 1013.78 1013.85 1014.09 1014.34 1014.66 1014.93 1015.26 1015.53 1015.70 1015.90 1016.02 1016.22 1016.49 1016.70
1006.41 1006.73 1007.14 1007.46 1007.78 1008.05 1008.26 1008.46 1008.61 1008.85 1009.09 1009.34 1009.58 1009.97 1010.22 1010.46 1010.78 1011.14 1011.34 1011.70 1012.02 1012.41 1012.73 1012.93 1012.97 1012.97 1013.09 1013.29 1013.41 1013.58 1013.90 1014.14 1014.38 1014.78 1015.14 1015.38 1015.49 1015.58 1015.70 1015.85 1016.09 1016.34
1005.73 1006.02 1006.38 1006.82 1007.14 1007.41 1007.66 1007.97 1008.22 1008.38 1008.66 1008.97 1009.09 1009.46 1009.85 1010.26 1010.49 1010.78 1010.90 1011.29 1011.73 1012.09 1012.41 1012.53 1012.58 1012.58 1012.78 1013.02 1013.17 1013.38 1013.70 1014.09 1014.46 1014.73 1014.97 1015.17 1015.29 1015.41 1015.53 1015.61 1015.73 1015.93
1004.93 1005.26 1005.66 1006.05 1006.46 1006.85 1007.22 1007.46 1007.70 1008.02 1008.26 1008.49 1008.82 1009.22 1009.46 1009.70 1010.09 1010.38 1010.61 1011.02 1011.38 1011.73 1011.93 1012.05 1012.17 1012.26 1012.41 1012.61 1012.82 1013.09 1013.58 1014.02 1014.34 1014.61 1014.90 1015.09 1015.26 1015.46 1015.49 1015.53 1015.58 1015.66
1004.34 1004.73 1005.05 1005.49 1005.93 1006.41 1006.82 1007.09 1007.34 1007.61 1007.85 1008.17 1008.46 1008.73 1008.90 1009.14 1009.46 1009.97 1010.53 1010.90 1011.14 1011.38 1011.61 1011.66 1011.78 1011.78 1011.85 1012.14 1012.58 1013.05 1013.46 1013.93 1014.22 1014.49 1014.73 1015.02 1015.29 1015.34 1015.29 1015.29 1015.34 1015.38
1003.85 1004.26 1004.70 1005.09 1005.61 1005.97 1006.26 1006.61 1006.97 1007.26 1007.58 1007.85 1008.09 1008.26 1008.49 1008.78 1009.22 1009.58 1010.02 1010.41 1010.82 1011.09 1011.22 1011.34 1011.29 1011.22 1011.22 1011.58 1012.05 1012.73 1013.41 1013.85 1014.17 1014.29 1014.41 1014.66 1014.90 1014.97 1015.05 1015.02 1014.97 1015.05
1003.58 1003.90 1004.26 1004.78 1004.97 1005.38 1005.78 1006.22 1006.58 1006.90 1007.22 1007.49 1007.73 1007.97 1008.22 1008.49 1008.85 1009.34 1009.61 1009.90 1010.26 1010.61 1010.85 1010.85 1010.73 1010.53 1010.78 1011.41 1012.05 1012.82 1013.70 1014.49 1014.49 1014.17 1014.14 1014.29 1014.49 1014.73 1014.85 1014.85 1014.82 1014.78
1002.93 1003.34 1003.90 1004.17 1004.58 1004.97 1005.26 1005.66 1006.14 1006.58 1006.90 1007.14 1007.38 1007.70 1007.85 1008.09 1008.58 1008.82 1009.05 1009.38 1009.73 1010.02 1010.26 1010.17 1010.09 1009.97 1010.46 1011.17 1012.22 1013.26 1013.70 1013.38 1013.14 1013.73 1014.02 1014.17 1014.34 1014.46 1014.46 1014.53 1014.61 1014.70
1002.34 1002.90 1003.26 1003.66 1003.93 1004.26 1004.73 1005.29 1005.78 1006.17 1006.53 1006.82 1007.05 1007.02 1007.34 1007.85 1008.05 1008.34 1008.66 1008.82 1009.14 1009.46 1009.61 1009.58 1009.58 1009.61 1010.22 1011.14 1012.41 1012.97 1012.78 1012.17 1012.93 1013.26 1013.49 1013.66 1013.78 1013.97 1014.17 1014.34 1014.49 1014.66
1001.78 1002.26 1002.73 1002.97 1003.29 1003.82 1004.34 1004.85 1005.29 1005.66 1005.82 1006.02 1006.29 1006.70 1007.14 1007.41 1007.58 1007.82 1008.02 1008.34 1008.49 1008.73 1008.97 1009.09 1009.17 1009.29 1010.05 1011.26 1012.05 1011.93 1011.49 1012.17 1013.02 1012.97 1013.09 1013.29 1013.41 1013.66 1013.90 1014.14 1014.29 1014.46
1001.22 1001.61 1002.05 1002.41 1002.90 1003.34 1003.85 1004.26 1004.61 1005.02 1005.41 1005.66 1005.93 1006.29 1006.58 1006.73 1006.90 1007.26 1007.46 1007.66 1007.97 1008.22 1008.58 1008.78 1008.70 1009.09 1010.02 1010.97 1011.17 1011.05 1011.22 1012.78 1012.66 1012.53 1012.90 1013.09 1013.22 1013.29 1013.53 1013.78 1013.93 1014.02
1000.46 1001.02 1001.46 1001.97 1002.46 1002.90 1003.38 1003.73 1004.02 1004.38 1004.82 1005.05 1005.41 1005.61 1005.73 1005.97 1006.29 1006.53 1006.93 1007.26 1007.49 1007.82 1008.17 1008.46 1008.53 1009.09 1009.90 1010.41 1010.70 1011.02 1011.38 1012.02 1012.38 1012.70 1012.73 1012.90 1012.97 1013.09 1013.22 1013.34 1013.46 1013.66
999.70 1000.29 1000.90 1001.41 1001.85 1002.41 1002.82 1003.14 1003.49 1003.85 1004.14 1004.34 1004.93 1005.14 1005.46 1005.70 1005.82 1005.97 1006.22 1006.73 1007.14 1007.49 1007.90 1008.22 1008.61 1009.09 1009.58 1010.05 1010.49 1010.85 1011.53 1011.85 1011.90 1012.22 1012.49 1012.73 1012.78 1012.82 1012.93 1013.05 1013.26 1013.41
998.97 999.53 1000.22 1000.73 1001.26 1001.73 1002.05 1002.38 1002.66 1002.97 1003.29 1003.53 1004.17 1004.58 1004.93 1004.97 1005.22 1005.70 1006.02 1006.29 1006.78 1007.22 1007.38 1007.93 1008.41 1008.93 1009.17 1009.61 1010.02 1010.29 1010.46 1010.93 1011.41 1011.82 1012.17 1012.49 1012.70 1012.78 1012.90 1013.02 1013.05 1013.09
998.29 998.85 999.46 1000.05 1000.61 1000.93 1001.29 1001.82 1002.14 1002.41 1002.61 1003.02 1003.38 1003.78 1004.22 1004.53 1004.97 1005.49 1005.85 1006.17 1006.34 1006.61 1006.90 1007.29 1007.82 1008.46 1008.82 1009.17 1009.53 1009.78 1010.26 1010.53 1011.05 1011.66 1012.26 1012.46 1012.53 1012.70 1012.82 1012.93 1012.97 1012.85
997.70 998.26 998.70 999.26 999.82 1000.26 1000.66 1001.02 1001.38 1001.97 1002.41 1002.82 1003.14 1003.41 1003.97 1004.38 1004.78 1005.22 1005.70 1006.02 1006.09 1006.34 1006.61 1006.78 1007.53 1008.41 1009.02 1009.05 1009.34 1009.78 1009.97 1010.17 1010.73 1011.41 1011.90 1012.14 1012.38 1012.58 1012.90 1012.97 1012.93 1012.90
Thickness
5825 5822 5819 5816 5815 5814 5813 5811 5808 5805 5803 5802 5800 5799 5799 5798 5798 5796 5793 5792 5790 5788 5786 5784 5782 5779 5777 5775 5772 5768 5766 5763 5761 5758 5756 5753 5751 5749 5746 5743 5742 5739
5826 5823 5820 5817 5815 5814 5814 5812 5810 5807 5805 5804 5803 5802 5801 5800 5799 5797 5795 5793 5791 5789 5787 5785 5783 5781 5778 5775 5771 5768 5765 5762 5760 5758 5755 5752 5751 5749 5747 5744 5741 5739
5826 5824 5821 5818 5816 5814 5813 5813 5811 5808 5807 5806 5805 5803 5802 5801 5800 5799 5797 5794 5791 5789 5787 5785 5783 5781 5778 5775 5771 5768 5765 5762 5759 5758 5756 5753 5751 5749 5747 5745 5741 5739
5826 5824 5822 5819 5817 5815 5813 5812 5810 5808 5807 5806 5806 5805 5803 5802 5800 5799 5798 5795 5793 5789 5787 5786 5783 5781 5778 5775 5771 5766 5765 5762 5760 5758 5755 5753 5752 5749 5747 5745 5741 5738
5826 5825 5823 5820 5817 5815 5812 5811 5810 5809 5808 5807 5807 5806 5804 5803 5801 5799 5797 5795 5793 5789 5787 5785 5782 5780 5778 5775 5771 5767 5765 5763 5761 5759 5755 5752 5751 5749 5747 5744 5740 5738
5825 5824 5822 5819 5818 5815 5812 5811 5811 5811 5810 5809 5808 5807 5805 5804 5802 5800 5798 5795 5793 5789 5786 5784 5781 5779 5777 5774 5771 5768 5765 5763 5761 5759 5755 5752 5750 5748 5746 5742 5739 5736
5825 5823 5822 5819 5817 5815 5813 5812 5812 5812 5812 5811 5809 5808 5807 5805 5803 5802 5799 5796 5793 5790 5786 5784 5781 5779 5777 5774 5771 5769 5766 5763 5761 5759 5755 5753 5750 5747 5745 5742 5739 5736
5826 5824 5822 5819 5817 5815 5814 5813 5813 5813 5814 5812 5810 5809 5809 5807 5804 5803 5800 5797 5794 5790 5787 5784 5781 5779 5777 5775 5772 5769 5767 5764 5762 5759 5755 5752 5749 5746 5745 5742 5738 5735
5828 5825 5823 5820 5818 5816 5816 5815 5814 5815 5815 5813 5812 5811 5809 5808 5806 5803 5800 5797 5793 5790 5787 5783 5781 5780 5778 5776 5773 5770 5767 5765 5762 5759 5755 5752 5748 5745 5743 5740 5736 5733
5830 5827 5824 5821 5819 5818 5817 5817 5816 5816 5815 5814 5813 5811 5810 5809 5807 5804 5800 5796 5793 5789 5786 5783 5781 5781 5779 5777 5775 5772 5769 5766 5763 5760 5756 5752 5748 5744 5741 5737 5734 5731
5831 5829 5826 5823 5822 5820 5819 5819 5818 5817 5817 5816 5814 5812 5810 5809 5806 5804 5800 5797 5794 5790 5786 5783 5782 5782 5780 5777 5776 5774 5770 5766 5763 5759 5755 5751 5747 5744 5740 5737 5733 5730
5834 5832 5829 5827 5824 5822 5821 5821 5820 5819 5817 5816 5815 5813 5811 5809 5806 5804 5802 5798 5794 5790 5787 5784 5784 5783 5781 5778 5776 5773 5769 5765 5761 5757 5753 5749 5745 5743 5741 5737 5734 5730
5839 5836 5833 5830 5828 5826 5824 5823 5822 5821 5819 5818 5816 5814 5811 5809 5806 5804 5803 5799 5795 5791 5788 5786 5785 5784 5781 5778 5775 5772 5768 5763 5759 5755 5751 5748 5745 5741 5739 5737 5734 5731
5843 5840 5837 5834 5831 5828 5826 5824 5823 5821 5820 5818 5817 5815 5813 5811 5808 5805 5803 5799 5795 5791 5789 5787 5786 5784 5782 5778 5774 5771 5766 5760 5757 5754 5750 5746 5742 5739 5737 5735 5733 5731
5847 5843 5840 5836 5833 5830 5828 5826 5824 5822 5820 5819 5817 5816 5815 5813 5810 5806 5802 5798 5794 5792 5789 5789 5787 5786 5784 5780 5773 5768 5763 5759 5756 5753 5750 5745 5741 5738 5736 5734 5732 5730
5848 5845 5842 5838 5835 5832 5829 5827 5824 5822 5820 5818 5817 5817 5815 5813 5810 5806 5802 5798 5795 5791 5790 5789 5788 5788 5787 5780 5772 5765 5759 5756 5754 5752 5749 5745 5741 5738 5736 5733 5732 5730
5849 5846 5843 5839 5837 5834 5831 5828 5825 5822 5820 5818 5817 5816 5815 5813 5810 5806 5804 5800 5796 5793 5791 5790 5791 5791 5787 5779 5769 5759 5752 5751 5751 5750 5748 5745 5741 5738 5734 5732 5730 5728
5851 5847 5844 5841 5838 5836 5832 5829 5825 5822 5820 5819 5818 5817 5815 5813 5810 5807 5805 5802 5799 5795 5793 5793 5795 5794 5788 5778 5764 5753 5753 5756 5752 5748 5746 5744 5740 5737 5734 5732 5728 5725
5853 5849 5846 5843 5841 5838 5834 5830 5825 5823 5822 5820 5819 5818 5815 5813 5811 5809 5806 5803 5800 5798 5796 5797 5797 5794 5788 5775 5760 5754 5758 5759 5753 5748 5747 5744 5740 5737 5733 5729 5726 5723
5854 5851 5848 5845 5843 5839 5834 5830 5827 5825 5823 5822 5821 5818 5815 5813 5812 5810 5808 5805 5803 5801 5799 5798 5797 5794 5786 5773 5763 5761 5760 5753 5748 5748 5746 5742 5738 5735 5730 5727 5723 5720
5857 5853 5850 5847 5843 5839 5835 5832 5829 5827 5825 5823 5821 5819 5817 5816 5814 5812 5810 5807 5805 5803 5799 5798 5797 5792 5783 5772 5768 5767 5760 5748 5743 5743 5741 5737 5735 5732 5728 5725 5722 5719
5860 5855 5851 5847 5843 5839 5836 5834 5831 5829 5827 5825 5822 5820 5819 5817 5815 5813 5811 5807 5805 5803 5799 5796 5794 5788 5780 5773 5770 5765 5758 5749 5743 5739 5736 5734 5732 5729 5727 5724 5721 5718
5863 5858 5852 5848 5844 5840 5838 5835 5834 5831 5829 5827 5823 5820 5819 5818 5816 5814 5812 5808 5804 5801 5797 5794 5789 5784 5779 5774 5769 5763 5756 5750 5745 5740 5736 5733 5729 5727 5726 5723 5719 5716
5866 5860 5855 5850 5846 5843 5840 5838 5836 5833 5832 5829 5826 5822 5820 5818 5816 5813 5810 5808 5804 5800 5796 5792 5786 5782 5778 5773 5768 5763 5758 5752 5746 5741 5735 5731 5728 5725 5723 5720 5718 5715
5868 5863 5857 5852 5848 5845 5843 5840 5838 5836 5833 5830 5827 5824 5820 5818 5815 5811 5808 5805 5803 5799 5796 5792 5786 5780 5775 5771 5766 5761 5756 5752 5746 5739 5733 5729 5726 5723 5719 5717 5715 5712
5868 5864 5859 5856 5851 5847 5844 5842 5839 5836 5832 5828 5826 5822 5819 5815 5812 5809 5805 5802 5801 5797 5795 5791 5785 5776 5770 5767 5763 5757 5753 5750 5744 5737 5732 5728 5725 5721 5716 5712 5710 5708